Preview of NWS' New Version of Forecast
This preview is not operational and should not be used for support decisions.

Regional Weather Roundup (RWR)

Issued by National Weather Service (NWS)

                            
000
ASUS46 KSEW 190510
RWRWA 

WASHINGTON REGIONAL WEATHER ROUNDUP
NATIONAL WEATHER SERVICE SEATTLE WA
1000 PM PDT TUE JUN 18 2019

NOTE:"FAIR" INDICATES FEW OR NO CLOUDS BELOW 12,000 FEET WITH NO 
SIGNIFICANT WEATHER AND/OR OBSTRUCTIONS TO VISIBILITY.

WAZ507-509-555>559-190600-
SEATTLE, TACOMA, EVERETT, AND VICINITY
  
CITY           SKY/WX    TMP DP  RH WIND       PRES   REMARKS
EVERETT        CLOUDY    55  49  80 N7        30.20S                  
BOEING FIELD   CLOUDY    62  53  72 VRB3      30.18R                  
RENTON         CLOUDY    62  56  80 N7        30.18R                  
SEATAC AIRPORT MOCLDY    58  53  84 W5        30.19R                  
JBLM-MCCHORD   CLEAR     58  52  80 SW12      30.20R                  
PUYALLUP       MOCLDY    57  48  72 VRB3G12   30.21R                  
BREMERTON      CLOUDY    56  54  93 E7        30.19R                  
JBLM-FT LEWIS  CLEAR     57  52  85 S10       30.20R                  
TACOMA NARROWS CLEAR     57  47  69 SW9       30.20R                  
$$
 
WAZ001-503-506-510-514-515-190600-
NORTH INTERIOR
  
CITY           SKY/WX    TMP DP  RH WIND       PRES   REMARKS
BELLINGHAM     CLOUDY    59  44  57 S14G21    30.14R                  
FRIDAY HARBOR  CLEAR     78  46  32 W10G18    30.15S                  
EASTSOUND      CLEAR     59  48  67 S9        30.12S                  
PORT ANGELES   CLEAR     54  43  66 W13G21    30.20S                  
EDIZ HOOK      FAIR      55  46  73 W12G18    30.20R                  
PORT TOWNSEND  FAIR      55  46  71 W8        30.19R                  
NAS WHIDBEY    PTCLDY    57  47  69 W20G26    30.22S                  
ARLINGTON      PTCLDY    54  47  77 N8        30.21R                  
BURLINGTON     PTCLDY    54  46  76 S8        30.19S                  
$$
 
WAZ020-022-039-040-504-511-512-190600-
SOUTHWEST INTERIOR
  
CITY           SKY/WX    TMP DP  RH WIND       PRES   REMARKS
SHELTON        CLEAR     56  46  69 SW12      30.17S                  
OLYMPIA        CLEAR     55  46  71 S7        30.21R                  
CHEHALIS       FAIR      55  48  76 VRB7      30.24S                  
KELSO          CLEAR     57  46  66 NW8G18    30.26R                  
VANCOUVER      CLEAR     59  45  59 NW7G17    30.24R                  
SCAPPOOSE, OR  CLEAR     58  45  62 NW12      30.23R                  
PORTLAND, OR   PTCLDY    60  46  59 NW13      30.24R                  
$$
 
WAZ021-516-517-190600-
WASHINGTON COAST
  
CITY           SKY/WX    TMP DP  RH WIND       PRES   REMARKS
FORKS          CLOUDY    53  48  83 CALM      30.26S                  
HOQUIAM        CLEAR     54  51  90 NW13      30.26R                  
ASTORIA, OR    CLOUDY    56  48  74 NW13      30.28S                  
$$
 
WAZ019-023-024-040-567>569-190600-
CASCADE MOUNTAINS AND COLUMBIA GORGE
  
CITY           SKY/WX    TMP DP  RH WIND       PRES   REMARKS
STAMPEDE PASS  LGT RAIN  47  45  93 W10G20    30.16S VSB 1/4          
TROUTDALE, OR  CLEAR     60  46  59 NW7       30.23R                  
HOOD RIVER, OR CLEAR     63  46  55 NW8G16    30.15R                  
THE DALLES, OR CLEAR     65  46  50 NW23G32   30.08R                  
$$

WAZ026-027-041>044-520-521-190600-
EAST SLOPES
  
CITY           SKY/WX    TMP DP  RH WIND       PRES   REMARKS
OMAK           PTCLDY    74  32  21 NW13      29.86R                  
WENATCHEE      NOT AVBL                                               
ELLENSBURG     CLEAR     61  46  57 W29G47    30.03S                  
YAKIMA         CLEAR     66  42  41 NW14      30.03R                  
SUNNYSIDE ARPT CLEAR     67  44  42 W14       29.98                   
YAKIMA TC      FAIR      64  43  46 N13       30.02R                  
$$

WAZ028-034-035-190600-
COLUMBIA BASIN
  
CITY           SKY/WX    TMP DP  RH WIND       PRES   REMARKS
EPHRATA        CLEAR     70  31  23 NW28G37   29.87S                  
MOSES LAKE     CLEAR     70  31  23 NW13      29.91R                  
PASCO          CLEAR     69  43  38 N6        29.95R                  
RICHLAND ARPT  CLEAR     71  38  30 N7        29.95R                  
HERMISTON, OR  CLEAR     69  44  40 SW20G26   29.99R                  
$$

WAZ036>038-190600-
NORTHEAST WASHINGTON
  
CITY           SKY/WX    TMP DP  RH WIND       PRES   REMARKS
SPOKANE GEIGER PTCLDY    70  39  32 SW16      29.91S                  
SPOKANE FELTS  CLEAR     74  35  24 SW10      29.89S                  
FAIRCHILD AFB  CLEAR     66  41  40 SW13      29.92S                  
COEURDALENE,ID CLEAR     67  48  50 S6        29.92R                  
DEER PARK      CLEAR     69  42  37 S10       29.89S                  
$$

WAZ029>033-190600-
SOUTHEAST WASHINGTON
  
CITY           SKY/WX    TMP DP  RH WIND       PRES   REMARKS
PULLMAN        CLEAR     64  46  52 SW5       30.00R                  
LEWISTON, ID   CLEAR     74  41  30 CALM      29.93R                  
WALLA WALLA    CLEAR     70  44  39 S10       29.99R                  
PENDLETON, OR  CLEAR     67  39  35 W29G39    29.99R                  
$$